#datetime,building,power
2023-07-10T00:00:00,75s,2.15
2023-07-10T00:01:00,75s,2.23
2023-07-10T00:02:00,75s,2.24
2023-07-10T00:03:00,75s,2.56
2023-07-10T00:04:00,75s,2.10
2023-07-10T00:05:00,75s,2.10
2023-07-10T00:06:00,75s,2.22
2023-07-10T00:07:00,75s,2.30
2023-07-10T00:08:00,75s,2.30
2023-07-10T00:09:00,75s,2.30
2023-07-10T00:10:00,75s,2.20
2023-07-10T00:11:00,75s,2.41
2023-07-10T00:12:00,75s,2.18
2023-07-10T00:13:00,75s,2.20
2023-07-10T00:14:00,75s,2.18
2023-07-10T00:15:00,75s,2.25
2023-07-10T00:16:00,75s,2.27
2023-07-10T00:17:00,75s,2.17
2023-07-10T00:18:00,75s,2.18
2023-07-10T00:19:00,75s,2.18
2023-07-10T00:20:00,75s,2.19
2023-07-10T00:21:00,75s,2.15
2023-07-10T00:22:00,75s,2.14
2023-07-10T00:23:00,75s,2.07
2023-07-10T00:24:00,75s,2.36
2023-07-10T00:25:00,75s,2.05
2023-07-10T00:26:00,75s,2.05
2023-07-10T00:27:00,75s,2.06
2023-07-10T00:28:00,75s,2.05
2023-07-10T00:29:00,75s,2.05
2023-07-10T00:30:00,75s,2.14
2023-07-10T00:31:00,75s,2.20
2023-07-10T00:32:00,75s,2.19
2023-07-10T00:33:00,75s,2.11
2023-07-10T00:34:00,75s,2.21
2023-07-10T00:35:00,75s,2.18
2023-07-10T00:36:00,75s,2.19
2023-07-10T00:37:00,75s,2.12
2023-07-10T00:38:00,75s,2.11
2023-07-10T00:39:00,75s,2.17
2023-07-10T00:40:00,75s,2.17
2023-07-10T00:41:00,75s,2.24
2023-07-10T00:42:00,75s,2.22
2023-07-10T00:43:00,75s,2.22
2023-07-10T00:44:00,75s,2.13
2023-07-10T00:45:00,75s,2.13
2023-07-10T00:46:00,75s,2.14
2023-07-10T00:47:00,75s,2.15
2023-07-10T00:48:00,75s,2.15
2023-07-10T00:49:00,75s,2.24
2023-07-10T00:50:00,75s,2.57
2023-07-10T00:51:00,75s,2.07
2023-07-10T00:52:00,75s,2.14
2023-07-10T00:53:00,75s,2.14
2023-07-10T00:54:00,75s,2.16
2023-07-10T00:55:00,75s,2.07
2023-07-10T00:56:00,75s,2.00
2023-07-10T00:57:00,75s,2.00
2023-07-10T00:58:00,75s,2.00
2023-07-10T00:59:00,75s,1.99
2023-07-10T01:00:00,75s,2.36
2023-07-10T01:01:00,75s,2.00
2023-07-10T01:02:00,75s,2.08
2023-07-10T01:03:00,75s,2.25
2023-07-10T01:04:00,75s,2.24
2023-07-10T01:05:00,75s,2.15
2023-07-10T01:06:00,75s,2.16
2023-07-10T01:07:00,75s,2.08
2023-07-10T01:08:00,75s,2.08
2023-07-10T01:09:00,75s,2.13
2023-07-10T01:10:00,75s,2.14
2023-07-10T01:11:00,75s,2.24
2023-07-10T01:12:00,75s,2.25
2023-07-10T01:13:00,75s,2.25
2023-07-10T01:14:00,75s,2.32
2023-07-10T01:15:00,75s,2.32
2023-07-10T01:16:00,75s,2.84
2023-07-10T01:17:00,75s,2.23
2023-07-10T01:18:00,75s,2.24
2023-07-10T01:19:00,75s,2.25
2023-07-10T01:20:00,75s,2.25
2023-07-10T01:21:00,75s,2.32
2023-07-10T01:22:00,75s,2.30
2023-07-10T01:23:00,75s,2.23
2023-07-10T01:24:00,75s,2.19
2023-07-10T01:25:00,75s,2.19
2023-07-10T01:26:00,75s,2.27
2023-07-10T01:27:00,75s,2.23
2023-07-10T01:28:00,75s,2.23
2023-07-10T01:29:00,75s,2.14
2023-07-10T01:30:00,75s,2.14
2023-07-10T01:31:00,75s,2.13
2023-07-10T01:32:00,75s,2.15
2023-07-10T01:33:00,75s,2.05
2023-07-10T01:34:00,75s,2.52
2023-07-10T01:35:00,75s,2.14
2023-07-10T01:36:00,75s,2.12
2023-07-10T01:37:00,75s,2.06
2023-07-10T01:38:00,75s,2.14
2023-07-10T01:39:00,75s,2.14
2023-07-10T01:40:00,75s,2.14
2023-07-10T01:41:00,75s,2.06
2023-07-10T01:42:00,75s,2.24
2023-07-10T01:43:00,75s,2.06
2023-07-10T01:44:00,75s,2.06
2023-07-10T01:45:00,75s,2.16
2023-07-10T01:46:00,75s,2.24
2023-07-10T01:47:00,75s,2.23
2023-07-10T01:48:00,75s,2.24
2023-07-10T01:49:00,75s,2.13
2023-07-10T01:50:00,75s,2.25
2023-07-10T01:51:00,75s,2.22
2023-07-10T01:52:00,75s,2.21
2023-07-10T01:53:00,75s,2.14
2023-07-10T01:54:00,75s,2.13
2023-07-10T01:55:00,75s,2.11
2023-07-10T01:56:00,75s,2.06
2023-07-10T01:57:00,75s,2.10
2023-07-10T01:58:00,75s,2.18
2023-07-10T01:59:00,75s,2.16
2023-07-10T02:00:00,75s,2.18
2023-07-10T02:01:00,75s,2.08
2023-07-10T02:02:00,75s,2.18
2023-07-10T02:03:00,75s,2.18
2023-07-10T02:04:00,75s,2.17
2023-07-10T02:05:00,75s,2.39
2023-07-10T02:06:00,75s,2.10
2023-07-10T02:07:00,75s,2.09
2023-07-10T02:08:00,75s,2.10
2023-07-10T02:09:00,75s,2.09
2023-07-10T02:10:00,75s,2.17
2023-07-10T02:11:00,75s,2.18
2023-07-10T02:12:00,75s,2.22
2023-07-10T02:13:00,75s,2.18
2023-07-10T02:14:00,75s,2.27
2023-07-10T02:15:00,75s,2.16
2023-07-10T02:16:00,75s,2.09
2023-07-10T02:17:00,75s,2.10
2023-07-10T02:18:00,75s,2.10
2023-07-10T02:19:00,75s,2.98
2023-07-10T02:20:00,75s,2.19
2023-07-10T02:21:00,75s,2.26
2023-07-10T02:22:00,75s,2.25
2023-07-10T02:23:00,75s,2.26
2023-07-10T02:24:00,75s,2.18
2023-07-10T02:25:00,75s,2.18
2023-07-10T02:26:00,75s,2.19
2023-07-10T02:27:00,75s,2.18
2023-07-10T02:28:00,75s,2.27
2023-07-10T02:29:00,75s,2.27
2023-07-10T02:30:00,75s,2.14
2023-07-10T02:31:00,75s,2.19
2023-07-10T02:32:00,75s,2.15
2023-07-10T02:33:00,75s,2.16
2023-07-10T02:34:00,75s,2.15
2023-07-10T02:35:00,75s,2.10
2023-07-10T02:36:00,75s,2.09
2023-07-10T02:37:00,75s,2.08
2023-07-10T02:38:00,75s,2.09
2023-07-10T02:39:00,75s,2.08
2023-07-10T02:40:00,75s,2.07
2023-07-10T02:41:00,75s,2.09
2023-07-10T02:42:00,75s,2.23
2023-07-10T02:43:00,75s,2.09
2023-07-10T02:44:00,75s,2.14
2023-07-10T02:45:00,75s,2.19
2023-07-10T02:46:00,75s,2.19
2023-07-10T02:47:00,75s,2.18
2023-07-10T02:48:00,75s,2.18
2023-07-10T02:49:00,75s,2.11
2023-07-10T02:50:00,75s,2.10
2023-07-10T02:51:00,75s,11.40
2023-07-10T02:52:00,75s,11.38
2023-07-10T02:53:00,75s,11.29
2023-07-10T02:54:00,75s,11.22
2023-07-10T02:55:00,75s,11.24
2023-07-10T02:56:00,75s,2.29
2023-07-10T02:57:00,75s,2.25
2023-07-10T02:58:00,75s,2.16
2023-07-10T02:59:00,75s,2.16
2023-07-10T03:00:00,75s,2.16
2023-07-10T03:01:00,75s,2.20
2023-07-10T03:02:00,75s,2.19
2023-07-10T03:03:00,75s,2.06
2023-07-10T03:04:00,75s,2.03
2023-07-10T03:05:00,75s,2.02
2023-07-10T03:06:00,75s,2.01
2023-07-10T03:07:00,75s,2.01
2023-07-10T03:08:00,75s,2.08
2023-07-10T03:09:00,75s,2.09
2023-07-10T03:10:00,75s,2.03
2023-07-10T03:11:00,75s,2.02
2023-07-10T03:12:00,75s,2.00
2023-07-10T03:13:00,75s,1.99
2023-07-10T03:14:00,75s,2.08
2023-07-10T03:15:00,75s,2.10
2023-07-10T03:16:00,75s,2.00
2023-07-10T03:17:00,75s,2.01
2023-07-10T03:18:00,75s,2.00
2023-07-10T03:19:00,75s,2.00
2023-07-10T03:20:00,75s,2.00
2023-07-10T03:21:00,75s,2.01
2023-07-10T03:22:00,75s,2.09
2023-07-10T03:23:00,75s,2.15
2023-07-10T03:24:00,75s,2.14
2023-07-10T03:25:00,75s,2.34
2023-07-10T03:26:00,75s,2.40
2023-07-10T03:27:00,75s,2.40
2023-07-10T03:28:00,75s,2.33
2023-07-10T03:29:00,75s,2.25
2023-07-10T03:30:00,75s,2.24
2023-07-10T03:31:00,75s,2.23
2023-07-10T03:32:00,75s,2.24
2023-07-10T03:33:00,75s,2.75
2023-07-10T03:34:00,75s,2.29
2023-07-10T03:35:00,75s,2.31
2023-07-10T03:36:00,75s,2.20
2023-07-10T03:37:00,75s,2.18
2023-07-10T03:38:00,75s,2.33
2023-07-10T03:39:00,75s,2.35
2023-07-10T03:40:00,75s,2.31
2023-07-10T03:41:00,75s,2.17
2023-07-10T03:42:00,75s,2.17
2023-07-10T03:43:00,75s,2.18
2023-07-10T03:44:00,75s,2.18
2023-07-10T03:45:00,75s,2.19
2023-07-10T03:46:00,75s,2.18
2023-07-10T03:47:00,75s,2.18
2023-07-10T03:48:00,75s,2.22
2023-07-10T03:49:00,75s,2.18
2023-07-10T03:50:00,75s,2.36
2023-07-10T03:51:00,75s,2.30
2023-07-10T03:52:00,75s,2.30
2023-07-10T03:53:00,75s,2.05
2023-07-10T03:54:00,75s,2.06
2023-07-10T03:55:00,75s,2.06
2023-07-10T03:56:00,75s,2.06
2023-07-10T03:57:00,75s,2.07
2023-07-10T03:58:00,75s,2.16
2023-07-10T03:59:00,75s,2.16
2023-07-10T04:00:00,75s,2.58
2023-07-10T04:01:00,75s,2.32
2023-07-10T04:02:00,75s,2.65
2023-07-10T04:03:00,75s,2.30
2023-07-10T04:04:00,75s,2.14
2023-07-10T04:05:00,75s,2.15
2023-07-10T04:06:00,75s,2.17
2023-07-10T04:07:00,75s,2.15
2023-07-10T04:08:00,75s,2.16
2023-07-10T04:09:00,75s,2.06
2023-07-10T04:10:00,75s,2.04
2023-07-10T04:11:00,75s,2.06
2023-07-10T04:12:00,75s,2.05
2023-07-10T04:13:00,75s,2.45
2023-07-10T04:14:00,75s,2.21
2023-07-10T04:15:00,75s,2.46
2023-07-10T04:16:00,75s,2.07
2023-07-10T04:17:00,75s,2.06
2023-07-10T04:18:00,75s,2.12
2023-07-10T04:19:00,75s,2.06
2023-07-10T04:20:00,75s,2.10
2023-07-10T04:21:00,75s,2.28
2023-07-10T04:22:00,75s,2.11
2023-07-10T04:23:00,75s,2.10
2023-07-10T04:24:00,75s,2.42
2023-07-10T04:25:00,75s,2.25
2023-07-10T04:26:00,75s,2.26
2023-07-10T04:27:00,75s,2.17
2023-07-10T04:28:00,75s,2.09
2023-07-10T04:29:00,75s,2.09
2023-07-10T04:30:00,75s,2.09
2023-07-10T04:31:00,75s,2.15
2023-07-10T04:32:00,75s,2.24
2023-07-10T04:33:00,75s,2.24
2023-07-10T04:34:00,75s,2.24
2023-07-10T04:35:00,75s,2.33
2023-07-10T04:36:00,75s,2.32
2023-07-10T04:37:00,75s,2.32
2023-07-10T04:38:00,75s,2.33
2023-07-10T04:39:00,75s,2.27
2023-07-10T04:40:00,75s,2.20
2023-07-10T04:41:00,75s,2.19
2023-07-10T04:42:00,75s,2.08
2023-07-10T04:43:00,75s,2.09
2023-07-10T04:44:00,75s,2.10
2023-07-10T04:45:00,75s,2.10
2023-07-10T04:46:00,75s,2.17
2023-07-10T04:47:00,75s,2.16
2023-07-10T04:48:00,75s,2.18
2023-07-10T04:49:00,75s,2.07
2023-07-10T04:50:00,75s,2.07
2023-07-10T04:51:00,75s,2.08
2023-07-10T04:52:00,75s,2.08
2023-07-10T04:53:00,75s,2.07
2023-07-10T04:54:00,75s,2.08
2023-07-10T04:55:00,75s,2.16
2023-07-10T04:56:00,75s,2.11
2023-07-10T04:57:00,75s,2.11
2023-07-10T04:58:00,75s,2.20
2023-07-10T04:59:00,75s,2.18
2023-07-10T05:00:00,75s,2.10
2023-07-10T05:01:00,75s,2.10
2023-07-10T05:02:00,75s,2.13
2023-07-10T05:03:00,75s,2.00
2023-07-10T05:04:00,75s,2.00
2023-07-10T05:05:00,75s,2.40
2023-07-10T05:06:00,75s,2.40
2023-07-10T05:07:00,75s,2.39
2023-07-10T05:08:00,75s,2.39
2023-07-10T05:09:00,75s,2.44
2023-07-10T05:10:00,75s,2.71
2023-07-10T05:11:00,75s,2.58
2023-07-10T05:12:00,75s,2.57
2023-07-10T05:13:00,75s,2.55
2023-07-10T05:14:00,75s,2.41
2023-07-10T05:15:00,75s,2.42
2023-07-10T05:16:00,75s,2.99
2023-07-10T05:17:00,75s,2.69
2023-07-10T05:18:00,75s,2.34
2023-07-10T05:19:00,75s,2.33
2023-07-10T05:20:00,75s,2.33
2023-07-10T05:21:00,75s,2.33
2023-07-10T05:22:00,75s,2.32
2023-07-10T05:23:00,75s,2.39
2023-07-10T05:24:00,75s,2.40
2023-07-10T05:25:00,75s,2.48
2023-07-10T05:26:00,75s,2.47
2023-07-10T05:27:00,75s,2.79
2023-07-10T05:28:00,75s,2.43
2023-07-10T05:29:00,75s,2.87
2023-07-10T05:30:00,75s,2.51
2023-07-10T05:31:00,75s,2.36
2023-07-10T05:32:00,75s,2.37
2023-07-10T05:33:00,75s,2.38
2023-07-10T05:34:00,75s,2.37
2023-07-10T05:35:00,75s,2.36
2023-07-10T05:36:00,75s,2.36
2023-07-10T05:37:00,75s,2.45
2023-07-10T05:38:00,75s,2.56
2023-07-10T05:39:00,75s,2.55
2023-07-10T05:40:00,75s,2.55
2023-07-10T05:41:00,75s,2.64
2023-07-10T05:42:00,75s,2.65
2023-07-10T05:43:00,75s,2.55
2023-07-10T05:44:00,75s,2.56
2023-07-10T05:45:00,75s,2.53
2023-07-10T05:46:00,75s,2.53
2023-07-10T05:47:00,75s,2.51
2023-07-10T05:48:00,75s,2.51
2023-07-10T05:49:00,75s,2.41
2023-07-10T05:50:00,75s,13.36
2023-07-10T05:51:00,75s,2.48
2023-07-10T05:52:00,75s,3.32
2023-07-10T05:53:00,75s,2.49
2023-07-10T05:54:00,75s,2.49
2023-07-10T05:55:00,75s,2.41
2023-07-10T05:56:00,75s,2.41
2023-07-10T05:57:00,75s,2.42
2023-07-10T05:58:00,75s,2.39
2023-07-10T05:59:00,75s,2.39
2023-07-10T06:00:00,75s,2.41
2023-07-10T06:01:00,75s,3.58
2023-07-10T06:02:00,75s,3.80
2023-07-10T06:03:00,75s,5.06
2023-07-10T06:04:00,75s,4.38
2023-07-10T06:05:00,75s,4.29
2023-07-10T06:06:00,75s,14.19
2023-07-10T06:07:00,75s,14.71
2023-07-10T06:08:00,75s,14.48
2023-07-10T06:09:00,75s,14.46
2023-07-10T06:10:00,75s,14.56
2023-07-10T06:11:00,75s,14.79
2023-07-10T06:12:00,75s,14.55
2023-07-10T06:13:00,75s,14.52
2023-07-10T06:14:00,75s,14.53
2023-07-10T06:15:00,75s,14.61
2023-07-10T06:16:00,75s,25.00
2023-07-10T06:17:00,75s,24.69
2023-07-10T06:18:00,75s,25.92
2023-07-10T06:19:00,75s,26.07
2023-07-10T06:20:00,75s,25.73
2023-07-10T06:21:00,75s,25.40
2023-07-10T06:22:00,75s,24.95
2023-07-10T06:23:00,75s,24.62
2023-07-10T06:24:00,75s,24.48
2023-07-10T06:25:00,75s,20.98
2023-07-10T06:26:00,75s,20.18
2023-07-10T06:27:00,75s,20.13
2023-07-10T06:28:00,75s,14.60
2023-07-10T06:29:00,75s,14.55
2023-07-10T06:30:00,75s,14.17
2023-07-10T06:31:00,75s,14.16
2023-07-10T06:32:00,75s,14.19
2023-07-10T06:33:00,75s,14.19
2023-07-10T06:34:00,75s,14.21
2023-07-10T06:35:00,75s,14.54
2023-07-10T06:36:00,75s,14.20
2023-07-10T06:37:00,75s,14.32
2023-07-10T06:38:00,75s,14.65
2023-07-10T06:39:00,75s,14.60
2023-07-10T06:40:00,75s,14.62
2023-07-10T06:41:00,75s,14.20
2023-07-10T06:42:00,75s,3.84
2023-07-10T06:43:00,75s,4.08
2023-07-10T06:44:00,75s,3.97
2023-07-10T06:45:00,75s,4.14
2023-07-10T06:46:00,75s,4.11
2023-07-10T06:47:00,75s,4.13
2023-07-10T06:48:00,75s,4.20
2023-07-10T06:49:00,75s,4.22
2023-07-10T06:50:00,75s,4.39
2023-07-10T06:51:00,75s,4.32
2023-07-10T06:52:00,75s,14.41
2023-07-10T06:53:00,75s,14.58
2023-07-10T06:54:00,75s,14.58
2023-07-10T06:55:00,75s,14.62
2023-07-10T06:56:00,75s,14.70
2023-07-10T06:57:00,75s,14.71
2023-07-10T06:58:00,75s,14.81
2023-07-10T06:59:00,75s,14.79
2023-07-10T07:00:00,75s,14.71
2023-07-10T07:01:00,75s,14.80
2023-07-10T07:02:00,75s,24.83
2023-07-10T07:03:00,75s,25.88
2023-07-10T07:04:00,75s,25.14
2023-07-10T07:05:00,75s,25.01
2023-07-10T07:06:00,75s,29.18
2023-07-10T07:07:00,75s,29.18
2023-07-10T07:08:00,75s,29.09
2023-07-10T07:09:00,75s,28.97
2023-07-10T07:10:00,75s,28.77
2023-07-10T07:11:00,75s,20.22
2023-07-10T07:12:00,75s,20.22
2023-07-10T07:13:00,75s,20.24
2023-07-10T07:14:00,75s,20.25
2023-07-10T07:15:00,75s,20.25
2023-07-10T07:16:00,75s,20.44
2023-07-10T07:17:00,75s,20.51
2023-07-10T07:18:00,75s,20.67
2023-07-10T07:19:00,75s,20.59
2023-07-10T07:20:00,75s,20.47
2023-07-10T07:21:00,75s,20.35
2023-07-10T07:22:00,75s,20.44
2023-07-10T07:23:00,75s,20.51
2023-07-10T07:24:00,75s,20.83
2023-07-10T07:25:00,75s,25.20
2023-07-10T07:26:00,75s,22.63
2023-07-10T07:27:00,75s,23.62
2023-07-10T07:28:00,75s,24.91
2023-07-10T07:29:00,75s,25.63
2023-07-10T07:30:00,75s,25.69
2023-07-10T07:31:00,75s,25.58
2023-07-10T07:32:00,75s,25.75
2023-07-10T07:33:00,75s,25.93
2023-07-10T07:34:00,75s,25.89
2023-07-10T07:35:00,75s,26.06
2023-07-10T07:36:00,75s,25.87
2023-07-10T07:37:00,75s,26.15
2023-07-10T07:38:00,75s,26.11
2023-07-10T07:39:00,75s,26.03
2023-07-10T07:40:00,75s,26.05
2023-07-10T07:41:00,75s,26.17
2023-07-10T07:42:00,75s,26.15
2023-07-10T07:43:00,75s,26.49
2023-07-10T07:44:00,75s,26.49
2023-07-10T07:45:00,75s,26.66
2023-07-10T07:46:00,75s,26.67
2023-07-10T07:47:00,75s,26.77
2023-07-10T07:48:00,75s,26.86
2023-07-10T07:49:00,75s,26.87
2023-07-10T07:50:00,75s,27.10
2023-07-10T07:51:00,75s,27.80
2023-07-10T07:52:00,75s,25.15
2023-07-10T07:53:00,75s,27.31
2023-07-10T07:54:00,75s,27.22
2023-07-10T07:55:00,75s,27.43
2023-07-10T07:56:00,75s,27.16
2023-07-10T07:57:00,75s,27.27
2023-07-10T07:58:00,75s,27.07
2023-07-10T07:59:00,75s,27.38
2023-07-10T08:00:00,75s,26.02
2023-07-10T08:01:00,75s,26.45
2023-07-10T08:02:00,75s,26.56
2023-07-10T08:03:00,75s,26.66
2023-07-10T08:04:00,75s,26.73
2023-07-10T08:05:00,75s,26.81
2023-07-10T08:06:00,75s,26.54
2023-07-10T08:07:00,75s,25.25
2023-07-10T08:08:00,75s,21.44
2023-07-10T08:09:00,75s,21.46
2023-07-10T08:10:00,75s,21.10
2023-07-10T08:11:00,75s,21.28
2023-07-10T08:12:00,75s,21.20
2023-07-10T08:13:00,75s,20.96
2023-07-10T08:14:00,75s,20.86
2023-07-10T08:15:00,75s,20.87
2023-07-10T08:16:00,75s,20.94
2023-07-10T08:17:00,75s,21.06
2023-07-10T08:18:00,75s,21.17
2023-07-10T08:19:00,75s,22.28
2023-07-10T08:20:00,75s,23.70
2023-07-10T08:21:00,75s,25.14
2023-07-10T08:22:00,75s,26.19
2023-07-10T08:23:00,75s,26.19
2023-07-10T08:24:00,75s,26.27
2023-07-10T08:25:00,75s,26.32
2023-07-10T08:26:00,75s,26.28
2023-07-10T08:27:00,75s,26.28
2023-07-10T08:28:00,75s,26.52
2023-07-10T08:29:00,75s,26.51
2023-07-10T08:30:00,75s,26.46
2023-07-10T08:31:00,75s,26.71
2023-07-10T08:32:00,75s,26.27
2023-07-10T08:33:00,75s,26.28
2023-07-10T08:34:00,75s,26.20
2023-07-10T08:35:00,75s,26.09
2023-07-10T08:36:00,75s,26.11
2023-07-10T08:37:00,75s,26.38
2023-07-10T08:38:00,75s,26.48
2023-07-10T08:39:00,75s,26.52
2023-07-10T08:40:00,75s,26.59
2023-07-10T08:41:00,75s,26.56
2023-07-10T08:42:00,75s,26.47
2023-07-10T13:50:00,75s,22.79
2023-07-10T13:51:00,75s,27.86
2023-07-10T13:52:00,75s,25.87
2023-07-10T13:53:00,75s,27.69
2023-07-10T13:54:00,75s,27.64
2023-07-10T13:55:00,75s,27.97
2023-07-10T13:56:00,75s,27.61
2023-07-10T13:57:00,75s,27.75
2023-07-10T13:58:00,75s,27.71
2023-07-10T13:59:00,75s,27.74
2023-07-10T14:00:00,75s,27.70
2023-07-10T14:01:00,75s,27.76
2023-07-10T14:02:00,75s,27.79
2023-07-10T14:03:00,75s,27.77
2023-07-10T14:04:00,75s,27.75
2023-07-10T14:05:00,75s,27.61
2023-07-10T14:06:00,75s,27.55
2023-07-10T14:07:00,75s,27.51
2023-07-10T14:08:00,75s,27.36
2023-07-10T14:09:00,75s,27.22
2023-07-10T14:10:00,75s,26.95
2023-07-10T14:11:00,75s,26.86
2023-07-10T14:12:00,75s,26.85
2023-07-10T14:13:00,75s,26.94
2023-07-10T14:14:00,75s,31.96
2023-07-10T14:15:00,75s,27.30
2023-07-10T14:16:00,75s,27.30
2023-07-10T14:17:00,75s,27.34
2023-07-10T14:18:00,75s,27.17
2023-07-10T14:19:00,75s,27.18
2023-07-10T14:20:00,75s,27.18
2023-07-10T14:21:00,75s,27.07
2023-07-10T14:22:00,75s,25.92
2023-07-10T14:23:00,75s,25.03
2023-07-10T14:24:00,75s,23.56
2023-07-10T14:25:00,75s,21.74
2023-07-10T14:26:00,75s,21.85
2023-07-10T14:27:00,75s,21.70
2023-07-10T14:28:00,75s,21.53
2023-07-10T14:29:00,75s,21.54
2023-07-10T14:30:00,75s,21.54
2023-07-10T14:31:00,75s,21.53
2023-07-10T14:32:00,75s,21.58
2023-07-10T14:33:00,75s,21.56
2023-07-10T14:34:00,75s,21.54
2023-07-10T14:35:00,75s,21.69
2023-07-10T14:36:00,75s,21.64
2023-07-10T14:37:00,75s,21.65
2023-07-10T14:38:00,75s,21.61
2023-07-10T14:39:00,75s,21.71
2023-07-10T14:40:00,75s,22.85
2023-07-10T14:41:00,75s,27.82
2023-07-10T14:42:00,75s,25.99
2023-07-10T14:43:00,75s,27.51
2023-07-10T14:44:00,75s,27.85
2023-07-10T14:45:00,75s,28.47
2023-07-10T14:46:00,75s,27.79
2023-07-10T14:47:00,75s,27.80
2023-07-10T14:48:00,75s,27.79
2023-07-10T14:49:00,75s,27.87
2023-07-10T14:50:00,75s,27.93
2023-07-10T14:51:00,75s,27.95
2023-07-10T14:52:00,75s,28.12
2023-07-10T14:53:00,75s,27.81
2023-07-10T14:54:00,75s,27.75
2023-07-10T14:55:00,75s,28.11
2023-07-10T14:56:00,75s,27.96
2023-07-10T14:57:00,75s,28.20
2023-07-10T14:58:00,75s,27.59
2023-07-10T14:59:00,75s,27.59
2023-07-10T15:00:00,75s,27.62
2023-07-10T15:01:00,75s,27.62
2023-07-10T15:02:00,75s,27.58
2023-07-10T15:03:00,75s,27.69
2023-07-10T15:04:00,75s,27.76
2023-07-10T15:05:00,75s,27.79
2023-07-10T15:06:00,75s,27.74
2023-07-10T15:07:00,75s,27.67
2023-07-10T15:08:00,75s,27.59
2023-07-10T15:09:00,75s,27.53
2023-07-10T15:10:00,75s,27.27
2023-07-10T15:11:00,75s,27.19
2023-07-10T15:12:00,75s,27.13
2023-07-10T15:13:00,75s,27.10
2023-07-10T15:14:00,75s,27.15
2023-07-10T15:15:00,75s,26.20
2023-07-10T15:16:00,75s,24.58
2023-07-10T15:17:00,75s,23.39
2023-07-10T15:18:00,75s,22.03
2023-07-10T15:19:00,75s,21.57
2023-07-10T15:20:00,75s,21.62
2023-07-10T15:21:00,75s,21.53
2023-07-10T15:22:00,75s,21.53
2023-07-10T15:23:00,75s,21.56
2023-07-10T15:24:00,75s,21.58
2023-07-10T15:25:00,75s,21.68
2023-07-10T15:26:00,75s,21.69
2023-07-10T15:27:00,75s,21.69
2023-07-10T15:28:00,75s,21.71
2023-07-10T15:29:00,75s,21.75
2023-07-10T15:30:00,75s,21.81
2023-07-10T15:31:00,75s,21.82
2023-07-10T15:32:00,75s,22.07
2023-07-10T15:33:00,75s,21.77
2023-07-10T15:34:00,75s,21.71
2023-07-10T15:35:00,75s,21.73
2023-07-10T15:36:00,75s,21.76
2023-07-10T15:37:00,75s,21.84
2023-07-10T15:38:00,75s,21.79
2023-07-10T15:39:00,75s,21.92
2023-07-10T15:40:00,75s,21.99
2023-07-10T15:41:00,75s,23.28
2023-07-10T15:42:00,75s,25.10
2023-07-10T15:43:00,75s,26.84
2023-07-10T15:44:00,75s,27.88
2023-07-10T15:45:00,75s,27.97
2023-07-10T15:46:00,75s,27.89
2023-07-10T15:47:00,75s,27.81
2023-07-10T15:48:00,75s,27.69
2023-07-10T15:49:00,75s,27.69
2023-07-10T15:50:00,75s,27.76
2023-07-10T15:51:00,75s,27.68
2023-07-10T15:52:00,75s,28.39
2023-07-10T15:53:00,75s,27.87
2023-07-10T15:54:00,75s,27.84
2023-07-10T15:55:00,75s,27.82
2023-07-10T15:56:00,75s,27.72
2023-07-10T15:57:00,75s,28.10
2023-07-10T15:58:00,75s,28.12
2023-07-10T15:59:00,75s,27.82
2023-07-10T16:00:00,75s,27.55
2023-07-10T16:01:00,75s,27.43
2023-07-10T16:02:00,75s,27.40
2023-07-10T16:03:00,75s,27.42
2023-07-10T16:04:00,75s,27.48
2023-07-10T16:05:00,75s,27.54
2023-07-10T16:06:00,75s,27.47
2023-07-10T16:07:00,75s,27.35
2023-07-10T16:08:00,75s,27.35
2023-07-10T16:09:00,75s,27.35
2023-07-10T16:10:00,75s,27.83
2023-07-10T16:11:00,75s,27.45
2023-07-10T16:12:00,75s,27.43
2023-07-10T16:13:00,75s,27.44
2023-07-10T16:14:00,75s,27.43
2023-07-10T16:15:00,75s,27.41
2023-07-10T16:16:00,75s,27.46
2023-07-10T16:17:00,75s,27.39
2023-07-10T16:18:00,75s,36.23
2023-07-10T16:19:00,75s,34.81
2023-07-10T16:20:00,75s,35.87
2023-07-10T16:21:00,75s,35.65
2023-07-10T16:22:00,75s,33.93
2023-07-10T16:23:00,75s,32.56
2023-07-10T16:24:00,75s,22.17
2023-07-10T16:25:00,75s,21.56
2023-07-10T16:26:00,75s,21.57
2023-07-10T16:27:00,75s,21.55
2023-07-10T16:28:00,75s,21.56
2023-07-10T16:29:00,75s,21.94
2023-07-10T16:30:00,75s,21.51
2023-07-10T16:31:00,75s,21.40
2023-07-10T16:32:00,75s,21.42
2023-07-10T16:33:00,75s,21.44
2023-07-10T16:34:00,75s,21.46
2023-07-10T16:35:00,75s,21.49
2023-07-10T16:36:00,75s,21.39
2023-07-10T16:37:00,75s,21.55
2023-07-10T16:38:00,75s,23.11
2023-07-10T16:39:00,75s,24.40
2023-07-10T16:40:00,75s,26.06
2023-07-10T16:41:00,75s,27.20
2023-07-10T16:42:00,75s,27.29
2023-07-10T16:43:00,75s,27.28
2023-07-10T16:44:00,75s,27.40
2023-07-10T16:45:00,75s,27.40
2023-07-10T16:46:00,75s,24.27
2023-07-10T16:47:00,75s,21.42
2023-07-10T16:48:00,75s,21.92
2023-07-10T16:49:00,75s,21.52
2023-07-10T16:50:00,75s,21.47
2023-07-10T16:51:00,75s,21.57
2023-07-10T16:52:00,75s,22.43
2023-07-10T16:53:00,75s,24.15
2023-07-10T16:54:00,75s,25.80
2023-07-10T16:55:00,75s,27.19
2023-07-10T16:56:00,75s,27.37
2023-07-10T16:57:00,75s,27.43
2023-07-10T16:58:00,75s,27.46
2023-07-10T16:59:00,75s,27.44
2023-07-10T17:00:00,75s,27.42
2023-07-10T17:01:00,75s,27.78
2023-07-10T17:02:00,75s,27.49
2023-07-10T17:03:00,75s,27.49
2023-07-10T17:04:00,75s,27.33
2023-07-10T17:05:00,75s,27.47
2023-07-10T17:06:00,75s,27.52
2023-07-10T17:07:00,75s,27.51
2023-07-10T17:08:00,75s,27.57
2023-07-10T17:09:00,75s,27.89
2023-07-10T17:10:00,75s,27.85
2023-07-10T17:11:00,75s,28.16
2023-07-10T17:12:00,75s,27.80
2023-07-10T17:13:00,75s,27.99
2023-07-10T17:14:00,75s,27.95
2023-07-10T17:15:00,75s,27.95
2023-07-10T17:16:00,75s,27.87
2023-07-10T17:17:00,75s,27.81
2023-07-10T17:18:00,75s,27.92
2023-07-10T17:19:00,75s,27.86
2023-07-10T17:20:00,75s,27.96
2023-07-10T17:21:00,75s,28.00
2023-07-10T17:22:00,75s,27.98
2023-07-10T17:23:00,75s,27.64
2023-07-10T17:24:00,75s,27.62
2023-07-10T17:25:00,75s,28.00
2023-07-10T17:26:00,75s,28.04
2023-07-10T17:27:00,75s,28.02
2023-07-10T17:28:00,75s,27.83
2023-07-10T17:29:00,75s,27.82
2023-07-10T17:30:00,75s,27.84
2023-07-10T17:31:00,75s,27.85
2023-07-10T17:32:00,75s,27.95
2023-07-10T17:33:00,75s,27.85
2023-07-10T17:34:00,75s,26.72
2023-07-10T17:35:00,75s,25.12
2023-07-10T17:36:00,75s,23.95
2023-07-10T17:37:00,75s,22.95
2023-07-10T17:38:00,75s,22.55
2023-07-10T17:39:00,75s,21.66
2023-07-10T17:40:00,75s,21.63
2023-07-10T17:41:00,75s,21.67
2023-07-10T17:42:00,75s,21.66
2023-07-10T17:43:00,75s,21.64
2023-07-10T17:44:00,75s,21.70
2023-07-10T17:45:00,75s,22.15
2023-07-10T17:46:00,75s,23.80
2023-07-10T17:47:00,75s,28.05
2023-07-10T17:48:00,75s,27.22
2023-07-10T17:49:00,75s,28.15
2023-07-10T17:50:00,75s,28.16
2023-07-10T17:51:00,75s,28.19
2023-07-10T17:52:00,75s,28.09
2023-07-10T17:53:00,75s,28.07
2023-07-10T17:54:00,75s,28.07
2023-07-10T17:55:00,75s,28.14
2023-07-10T17:56:00,75s,28.14
2023-07-10T17:57:00,75s,28.12
2023-07-10T17:58:00,75s,28.00
2023-07-10T17:59:00,75s,28.02
2023-07-10T18:00:00,75s,27.98
2023-07-10T18:01:00,75s,28.03
2023-07-10T18:02:00,75s,27.94
2023-07-10T18:03:00,75s,27.84
2023-07-10T18:04:00,75s,27.79
2023-07-10T18:05:00,75s,27.75
2023-07-10T18:06:00,75s,27.91
2023-07-10T18:07:00,75s,27.79
2023-07-10T18:08:00,75s,27.76
2023-07-10T18:09:00,75s,27.58
2023-07-10T18:10:00,75s,27.53
2023-07-10T18:11:00,75s,27.49
2023-07-10T18:12:00,75s,27.47
2023-07-10T18:13:00,75s,27.68
2023-07-10T18:14:00,75s,27.65
2023-07-10T18:15:00,75s,27.55
2023-07-10T18:16:00,75s,27.58
2023-07-10T18:17:00,75s,27.65
2023-07-10T18:18:00,75s,27.65
2023-07-10T18:19:00,75s,27.63
2023-07-10T18:20:00,75s,27.58
2023-07-10T18:21:00,75s,27.58
2023-07-10T18:22:00,75s,27.50
2023-07-10T18:23:00,75s,27.53
2023-07-10T18:24:00,75s,27.50
2023-07-10T18:25:00,75s,27.62
2023-07-10T18:26:00,75s,27.57
2023-07-10T18:27:00,75s,27.51
2023-07-10T18:28:00,75s,26.28
2023-07-10T18:29:00,75s,24.37
2023-07-10T18:30:00,75s,22.14
2023-07-10T18:31:00,75s,21.75
2023-07-10T18:32:00,75s,21.67
2023-07-10T18:33:00,75s,21.63
2023-07-10T18:34:00,75s,21.77
2023-07-10T18:35:00,75s,21.69
2023-07-10T18:36:00,75s,21.68
2023-07-10T18:37:00,75s,22.00